Home > Time Zones > World Clock > Weather > Nigeria > Uyo > Past weeks

Flag for Nigeria Weather past 2 weeks in Uyo, Nigeria

Now
77 °F

Passing clouds.


Feels Like: 78 °F
Forecast: 75 / 100 °F
Wind: 2 mph from Southwest

Location: Malabo/Fernando Poo

Current Time: Mar 5, 2015 at 7:55:53 AM

Latest Report: Mar 5, 2015 at 7:00 AM


Visibility: 4 mi

Pressure: 29.86 "Hg

Humidity: 89%

Dew point: 73 °F

Location of UyoLocation

Historic Weather in Uyo — Graph

°F

Uyo temperature yesterday

Maximum temperature yesterday: 88 °F (at 2:00 PM)
Minimum temperature yesterday: 77 °F (at 4:00 AM)
Average temperature yesterday: 82 °F

Past Weeks' High & Low Weather Summary

 TemperatureHumidityPressure
High90 °F (Feb 20, 1:00 PM)100% (Feb 18, 11:00 PM)29.95 "Hg (Feb 18, 11:00 PM)
Low72 °F (Feb 19, 4:00 AM)59% (Feb 19, 10:00 AM)29.74 "Hg (Feb 20, 5:00 PM)
Average82 °F82%29.84 "Hg
* Reported Feb 18 6:00 AM — Mar 5 6:00 AM, Uyo, Weather by CustomWeather, © 2015

Note: Actual official high and low records may vary slightly from our data, if they occured in-between our weather recording intervals... More about our weather records

Advertising

Uyo weather history for previous 24 hours

 ConditionsComfort  
Time TempWeatherWind HumidityBarometerVisibility
6:00 AM
Thu, Mar 5
77 °FPassing clouds.No wind89%29.83 "Hg5 mi
5:00 AM77 °FPassing clouds.2 mph89%29.83 "Hg5 mi
4:00 AM77 °FPassing clouds.2 mph83%29.86 "Hg4 mi
3:00 AM77 °FPassing clouds.2 mph83%29.86 "Hg4 mi
2:00 AM77 °FPassing clouds.2 mph83%29.86 "Hg4 mi
12:00 AM79 °FPassing clouds.2 mph89%29.92 "Hg4 mi
11:00 PM
Wed, Mar 4
79 °FPassing clouds.9 mph89%29.89 "Hg5 mi
9:00 PM81 °FPassing clouds.7 mph89%29.89 "Hg5 mi
7:00 PM82 °FPassing clouds.7 mph84%29.83 "Hg5 mi
5:00 PM84 °FPassing clouds.7 mph79%29.83 "Hg5 mi
4:00 PM86 °FPassing clouds.8 mph75%29.83 "Hg5 mi
3:00 PM88 °FPassing clouds.6 mph75%29.83 "Hg5 mi
2:00 PM88 °FPassing clouds.5 mph75%29.86 "Hg5 mi
1:00 PM86 °FPassing clouds.5 mph75%29.89 "Hg5 mi
12:00 PM84 °FPartly sunny.5 mph79%29.92 "Hg5 mi
11:00 AM84 °FPartly sunny.5 mph79%29.92 "Hg5 mi
10:00 AM82 °FThunderstorms. Partly sunny.5 mph84%29.92 "Hg5 mi
8:00 AM77 °FThunderstorms. Partly sunny.2 mph89%29.89 "Hg4 mi
7:00 AM77 °FThunderstorms. Scattered clouds.5 mph89%29.89 "Hg4 mi
Weather by CustomWeather, © 2015

See weather overviewHow to use our weather pages